sat.trackr.live / text

‹ back to catalog

STARLINK-34785

NORAD 65354 · 2025-190D

PAYLOAD ACTIVE UNKNOWN

§ Identity

Operator
Country
US
Launch date
2025-08-28
Launch site
AFETR
Launch vehicle
Mass (kg)
RCS (m²)

Purposes: comms

External: N2YO · Heavens-Above · Gunter

§ Orbital elements

Epoch: 2026-05-25T02:16:50.018304Z

Period
93.85 min
Inclination
53.1580°
Eccentricity
0.0001192
Mean motion
15.34397992 rev/d
Perigee alt
461.9 km
Apogee alt
463.5 km
Semi-major
6,840.8 km
B*
6.1900e-4
RAAN
173.2538°
Arg perigee
46.7440°
Mean anomaly
313.3662°
Rev number
4,098

§ Raw data

STARLINK-347851 65354U 25190D   26145.09502336  .00020594  00000+0  61900-3 0  99942 65354  53.1580 173.2538 0001192  46.7440 313.3662 15.34397992 40981

JSON: /api/v1/satellites/65354 · /tle

For live sub-satellite position, see the globe view (requires WebGL).

§ Visibility from observer

Set your observer location to see the next 7 days of passes ≥ 10°. The values pass through the URL so the page stays shareable.

No JS? Fill the form by hand. The geolocation button needs JavaScript.